TimeCST,TemperatureF,Dew PointF,Humidity,Sea Level PressureIn,VisibilityMPH,Wind Direction,Wind SpeedMPH,Gust SpeedMPH,PrecipitationIn,Events,Conditions,WindDirDegrees,DateUTC
12:53 AM,32.0,19.0,59,30.27,10.0,SW,4.6,-,N/A,,Clear,230,2013-02-03 06:53:00
1:53 AM,34.0,19.0,54,30.24,10.0,SW,3.5,-,N/A,,Clear,220,2013-02-03 07:53:00
2:53 AM,30.0,18.0,61,30.24,10.0,West,4.6,-,N/A,,Clear,260,2013-02-03 08:53:00
3:53 AM,30.9,18.0,59,30.22,10.0,SW,3.5,-,N/A,,Clear,230,2013-02-03 09:53:00
4:53 AM,26.1,17.1,69,30.21,10.0,SW,3.5,-,N/A,,Clear,220,2013-02-03 10:53:00
5:53 AM,24.1,16.0,71,30.22,10.0,SW,6.9,-,N/A,,Clear,220,2013-02-03 11:53:00
6:53 AM,21.9,15.1,75,30.22,10.0,SSW,5.8,-,N/A,,Clear,200,2013-02-03 12:53:00
7:53 AM,23.0,16.0,74,30.22,10.0,SW,4.6,-,N/A,,Clear,230,2013-02-03 13:53:00
8:53 AM,30.0,19.9,66,30.19,10.0,SSW,6.9,-,N/A,,Clear,210,2013-02-03 14:53:00
9:53 AM,39.0,21.0,49,30.17,10.0,WSW,8.1,-,N/A,,Clear,240,2013-02-03 15:53:00
10:53 AM,51.1,23.0,33,30.12,10.0,SSW,15.0,18.4,N/A,,Clear,210,2013-02-03 16:53:00
11:53 AM,57.9,23.0,26,30.06,10.0,SW,26.5,33.4,N/A,,Clear,220,2013-02-03 17:53:00
12:53 PM,61.0,21.9,22,30.01,10.0,SW,25.3,35.7,N/A,,Clear,220,2013-02-03 18:53:00
1:53 PM,61.0,21.9,22,29.94,10.0,SSW,24.2,29.9,N/A,,Clear,200,2013-02-03 19:53:00
2:53 PM,63.0,19.9,19,29.89,10.0,SSW,23.0,35.7,N/A,,Clear,200,2013-02-03 20:53:00
3:53 PM,64.0,19.9,18,29.83,10.0,SSW,27.6,35.7,N/A,,Clear,200,2013-02-03 21:53:00
4:53 PM,61.0,21.9,22,29.85,10.0,SSW,21.9,28.8,N/A,,Clear,200,2013-02-03 22:53:00
5:53 PM,57.9,23.0,26,29.85,10.0,South,11.5,-,N/A,,Clear,190,2013-02-03 23:53:00
6:53 PM,53.1,23.0,31,29.86,10.0,South,6.9,-,N/A,,Clear,190,2013-02-04 00:53:00
7:53 PM,53.1,24.1,32,29.84,10.0,South,10.4,-,N/A,,Clear,190,2013-02-04 01:53:00
8:53 PM,51.1,25.0,36,29.82,10.0,SSW,9.2,-,N/A,,Clear,200,2013-02-04 02:53:00
9:53 PM,50.0,26.1,39,29.79,10.0,South,9.2,-,N/A,,Clear,190,2013-02-04 03:53:00
10:53 PM,46.9,26.1,44,29.76,10.0,SSW,6.9,-,N/A,,Partly Cloudy,200,2013-02-04 04:53:00
11:53 PM,46.0,26.1,46,29.75,10.0,NW,6.9,-,N/A,,Clear,320,2013-02-04 05:53:00